Location: Ashford, WA 98304, USA
(46.7569°N, 122.0085°W)
Time: 08:24:28
(UTC-07:00)

ISS - Visible Passes

Search period start: 30 September 2023 00:00
Search period end: 10 October 2023 00:00
Orbit: 414 x 421 km, 51.6° (Epoch: 30 September)

Date Brightness Start Highest point End Pass type
(mag) Time Alt. Az. Time Alt. Az. Time Alt. Az.
30 Sep -2.7 20:24:01 10° WNW 20:27:10 38° SW 20:28:19 28° S visible
01 Oct -3.4 19:35:49 10° WNW 19:39:08 60° SSW 19:42:21 10° SE visible
01 Oct -0.7 21:14:50 10° WSW 21:15:18 10° SW 21:15:18 10° SW visible
02 Oct -1.2 20:25:09 10° W 20:27:21 17° SW 20:29:23 11° S visible
03 Oct -1.8 19:36:27 10° W 19:39:17 26° SW 19:42:07 10° SSE visible
05 Oct -0.6 19:38:03 10° WSW 19:38:57 11° SW 19:39:51 10° SSW visible
